Location: Newark
(12.1500°S, 17.6667°E)
Time: 22:36:24
(UTC+00:00)

LightSail 2 - Visible Passes

Search period start: 20 September 2019 00:00
Search period end: 30 September 2019 00:00
Orbit: 701 x 730 km, 24.0° (Epoch: 20 September)

Date Brightness Start Highest point End Pass type
(mag) Time Alt. Az. Time Alt. Az. Time Alt. Az.
20 Sep 6.8 18:07:07 10° SW 18:11:08 22° S 18:12:33 19° SSE visible
21 Sep 7.0 17:09:39 10° SW 17:13:39 22° S 17:17:39 10° SE visible
21 Sep 7.2 18:55:34 10° SW 18:57:55 21° SSW 18:57:55 21° SSW visible
22 Sep 6.7 17:58:18 10° SW 18:02:34 24° S 18:04:15 21° SE visible
23 Sep 6.9 17:00:59 10° SW 17:05:05 22° S 17:09:11 10° SE visible
23 Sep 6.7 18:46:27 10° SW 18:49:37 29° SSW 18:49:37 29° SSW visible
24 Sep 6.3 17:49:16 10° SW 17:53:54 31° SSE 17:55:59 23° SE visible
24 Sep 8.1 19:34:33 10° WSW 19:35:01 12° WSW 19:35:01 12° WSW visible
25 Sep 5.9 18:37:18 10° WSW 18:41:23 46° SSW 18:41:23 46° SSW visible
26 Sep 5.8 17:40:06 10° SW 17:45:07 43° SSE 17:47:47 24° ESE visible
26 Sep 7.8 19:25:37 10° WSW 19:26:48 17° WSW 19:26:48 17° WSW visible
27 Sep 5.1 18:28:14 10° WSW 18:33:14 80° WSW 18:33:14 80° WSW visible
28 Sep 5.3 17:30:56 10° WSW 17:36:11 68° SSE 17:39:41 21° E visible
28 Sep 7.5 19:16:57 10° W 19:18:43 19° W 19:18:43 19° W visible
29 Sep 5.6 18:19:22 10° W 18:24:27 51° NNW 18:25:11 47° N visible
